GFSSE_prec_cthk_246.txt.gz
RH
21 24 24 24 22 20 16 14 16 20 25 30 29 31 32 35 30 28 26 29 28 27 27 28 26 27 25 24 23 20 19 23 20 18 16 15 15 14 12 12 11 11 11
17 23 24 24 23 21 17 15 14 17 21 26 26 29 31 28 27 25 23 24 24 23 23 22 22 23 22 22 20 20 19 19 16 14 13 12 12 12 12 12 12 12 12
18 21 22 24 24 22 19 17 15 16 18 21 24 25 24 22 23 21 20 19 20 19 18 17 18 21 22 21 20 18 16 14 13 12 12 12 11 11 12 12 13 13 15
18 20 20 23 24 22 19 18 16 14 18 19 20 22 20 18 19 18 18 17 16 15 15 14 15 18 19 19 18 16 14 14 14 13 13 13 12 12 13 14 15 17 17
19 19 19 22 24 22 19 17 14 14 17 17 17 19 16 17 17 16 17 16 13 14 14 14 14 16 16 15 15 15 15 14 14 14 14 15 15 16 16 17 18 19 20
18 19 19 21 23 22 19 17 14 14 16 15 17 20 16 16 16 16 16 16 13 13 14 14 15 15 16 16 16 15 15 14 13 15 16 15 17 20 23 25 26 26 26
16 18 20 21 22 21 19 17 14 13 14 15 17 20 17 16 15 15 15 16 15 13 13 14 16 17 17 17 17 16 15 14 16 15 16 20 26 28 28 27 27 29 29
15 17 20 21 21 21 19 17 14 13 14 14 17 18 16 15 15 15 15 16 15 14 13 13 14 16 17 18 18 18 18 22 23 26 30 34 33 31 28 28 28 30 32
12 16 18 20 21 20 19 17 15 13 14 15 16 16 15 15 15 15 15 16 16 16 16 16 17 17 18 18 21 20 23 25 30 35 39 40 38 35 31 30 30 30 31
10 13 16 18 21 20 19 18 16 14 14 15 14 15 15 15 16 16 16 15 15 16 16 17 18 18 19 20 22 23 27 32 36 38 40 40 40 38 35 32 31 30 31
10 10 13 17 19 20 20 19 17 15 15 15 14 14 14 14 15 15 15 15 15 16 16 17 18 19 21 21 25 28 32 36 39 40 39 38 38 39 38 37 35 34 34
9 9 11 13 16 18 20 20 18 16 14 14 14 14 14 14 14 14 14 14 15 16 17 17 18 19 21 23 27 32 36 39 40 41 40 39 38 39 40 41 40 38 37
10 9 9 11 13 15 17 19 19 17 15 14 14 14 14 14 13 13 13 13 14 15 16 18 19 19 20 23 28 34 36 37 38 39 41 41 40 40 41 42 42 42 41
11 8 8 10 11 12 14 17 18 18 17 14 14 14 14 13 12 13 13 14 14 15 17 20 21 21 23 23 26 32 35 37 38 39 40 40 39 40 41 42 42 42 41
14 9 8 8 9 10 12 14 16 17 17 17 15 15 15 14 14 14 14 15 15 17 18 21 23 25 25 25 26 30 35 37 38 38 38 40 40 39 38 38 38 38 40
19 14 11 9 9 10 10 11 12 16 16 17 18 17 17 17 16 17 17 17 18 19 21 23 25 28 29 29 29 29 32 35 36 36 34 33 32 32 33 34 35 36 37
21 17 14 12 11 10 10 11 11 12 14 16 16 18 19 19 19 20 20 20 20 21 23 25 27 28 28 30 30 29 29 30 32 31 31 31 30 30 30 31 31 31 32
25 21 19 14 13 12 11 10 11 11 11 13 16 17 17 18 19 20 21 21 22 23 23 24 25 26 27 28 28 29 29 30 30 29 28 27 27 27 27 28 29 31 33
30 28 24 20 16 15 14 12 11 12 11 11 12 15 17 18 18 19 20 21 22 22 23 23 24 25 26 26 25 26 25 25 24 24 23 23 25 26 27 29 30 33 35
40 36 33 27 21 19 17 15 14 12 13 12 11 12 14 17 18 18 19 20 21 21 21 22 22 23 23 24 24 23 22 21 22 22 21 22 23 24 26 28 30 31 33
37 38 40 36 28 24 20 18 17 15 13 13 12 11 11 12 15 18 18 19 20 20 20 21 21 22 22 22 24 23 22 21 21 21 22 22 23 24 26 28 28 28 30
29 31 35 41 34 32 25 19 20 19 17 14 13 12 11 11 11 13 15 17 18 18 19 19 20 22 23 24 25 26 25 22 22 24 24 25 25 25 25 27 28 29 29
28 29 32 36 40 35 33 27 21 19 20 17 13 13 12 12 11 11 12 13 15 17 18 19 20 20 22 25 27 30 30 26 24 24 24 26 27 28 28 28 29 30 31
22 30 29 30 36 40 43 35 28 19 18 18 17 16 14 14 13 12 12 12 13 14 14 15 17 19 22 22 26 28 29 29 30 26 26 26 27 27 30 31 31 32 32
20 20 24 26 29 30 38 41 35 28 21 20 20 18 15 15 15 14 14 13 13 13 14 15 16 18 20 22 22 24 26 28 29 32 29 24 26 27 29 31 32 31 32
21 20 21 23 20 23 27 32 36 30 28 27 25 23 18 16 16 16 15 15 15 15 15 16 18 19 21 23 24 24 25 27 25 28 30 23 26 24 28 29 30 31 32

GFSSE_prec_cthk_252.txt.gz
RH
22 19 17 14 15 20 24 29 33 35 35 38 37 34 33 27 25 28 28 29 32 32 33 30 28 28 25 19 19 21 19 16 15 15 13 12 11 10 10 11 15 12 11
20 17 17 15 14 15 22 27 30 33 34 35 37 34 31 25 23 25 24 24 25 26 26 23 23 22 19 20 20 19 17 17 16 14 13 12 11 11 10 11 13 12 13
20 16 17 16 15 13 17 23 28 32 34 34 33 29 26 23 21 22 22 22 22 23 22 21 20 19 19 20 18 16 15 14 13 12 13 16 11 11 12 13 14 15 15
20 17 17 17 16 14 13 18 24 29 32 32 29 25 22 20 20 20 20 19 18 18 20 20 20 20 18 17 14 13 11 11 10 12 22 20 16 14 15 15 16 18 19
23 20 17 17 17 16 14 15 20 24 27 28 25 20 20 18 17 18 17 16 16 15 19 20 20 17 15 12 11 11 11 11 11 15 18 21 21 16 18 19 20 23 24
23 24 19 18 18 17 16 17 17 20 22 23 22 19 18 16 16 16 14 14 13 14 16 17 16 14 12 12 12 12 12 12 16 22 20 20 27 24 24 24 24 24 25
23 25 22 20 19 18 17 16 15 17 19 20 20 17 17 15 15 15 13 13 13 13 14 14 13 13 12 12 12 11 11 14 21 25 28 30 27 25 26 26 27 28 29
22 24 23 23 21 20 18 16 14 15 17 18 19 16 16 15 14 15 13 12 13 13 13 13 13 13 12 12 12 11 14 14 24 30 35 33 27 26 26 27 28 30 31
22 22 23 24 23 22 20 17 15 14 16 16 19 17 16 15 14 14 14 13 12 12 12 13 13 14 14 14 13 15 18 22 36 41 37 35 30 29 28 28 28 28 29
21 23 21 23 24 24 22 19 16 13 15 16 19 18 16 16 15 15 15 15 14 13 13 13 15 15 16 16 16 19 23 31 39 42 40 41 34 32 31 30 29 29 29
23 21 21 22 23 23 24 21 18 15 15 16 18 19 17 16 16 15 16 16 15 15 16 16 16 17 17 18 19 22 27 37 40 41 42 37 35 35 34 35 34 33 33
23 21 19 21 24 24 27 23 20 17 15 16 16 18 17 21 17 17 16 16 16 16 17 17 18 18 19 22 22 25 30 39 39 40 40 36 36 36 37 37 38 38 38
22 19 19 17 21 25 28 28 26 24 21 20 18 16 20 21 21 20 18 15 16 16 17 17 18 19 20 27 31 29 34 36 40 41 40 36 37 37 38 39 39 40 40
26 22 17 18 20 20 25 26 27 26 24 22 22 18 22 19 19 21 21 18 16 17 19 18 21 20 23 23 27 31 31 35 39 40 41 38 39 39 37 36 35 35 35
36 27 20 18 18 20 22 24 26 27 26 24 24 22 21 21 20 20 20 20 20 20 19 22 22 23 23 24 25 26 29 32 36 38 41 39 36 34 33 32 31 31 32
38 33 24 17 13 19 21 23 24 25 26 25 25 25 18 22 20 19 17 19 20 20 20 22 23 25 26 28 29 26 27 31 36 38 38 37 32 30 28 28 27 27 28
42 37 30 25 14 14 16 20 23 23 24 26 25 25 19 21 22 20 21 16 19 20 16 20 23 26 28 31 32 33 31 30 31 31 31 31 30 28 27 26 26 26 26
47 41 34 30 24 18 18 17 18 22 23 23 24 25 19 18 23 21 24 21 21 22 18 21 23 28 31 33 34 35 34 34 33 29 27 27 28 28 27 23 22 23 24
45 47 42 37 30 25 23 23 20 15 19 22 23 23 22 17 18 20 24 24 24 25 25 25 26 28 30 32 32 32 32 32 31 29 28 27 26 22 22 22 19 19 21
36 48 46 44 40 34 29 25 23 23 18 20 22 22 23 18 17 18 21 24 24 25 26 26 27 28 29 30 30 30 30 30 29 28 26 25 23 20 18 17 18 18 19
27 37 50 48 48 47 41 32 25 22 22 16 20 21 19 18 16 16 17 21 21 23 25 26 27 26 29 29 30 30 29 28 25 23 23 22 21 21 20 19 19 20 23
25 30 39 48 53 49 46 44 40 33 25 20 17 20 17 15 16 16 15 16 19 22 21 22 24 27 27 28 28 28 28 26 24 23 22 21 21 24 25 24 22 22 23
31 30 32 42 46 51 52 49 46 44 39 31 24 22 19 18 17 16 17 16 17 17 19 20 21 22 26 27 28 27 28 26 26 27 25 22 24 23 24 26 24 25 26
23 31 37 34 40 45 55 52 51 47 44 41 40 32 27 22 20 18 18 18 17 18 17 18 19 22 24 25 28 28 24 26 29 28 29 28 27 25 25 26 27 27 28
25 25 28 38 39 41 44 56 53 52 50 51 50 46 41 33 24 23 21 19 19 18 18 18 20 20 23 25 25 29 29 28 28 28 27 27 29 27 26 26 26 25 27
33 29 27 28 40 44 46 47 58 59 57 57 60 59 53 48 42 33 27 23 20 20 20 19 19 21 23 25 26 25 25 27 27 32 31 25 29 25 29 27 24 22 20

GFSSE_prec_cthk_258.txt.gz
RH
21 10 10 13 17 21 25 31 32 32 33 32 31 28 25 25 27 29 32 35 38 33 28 27 23 22 21 21 20 15 14 14 14 13 11 9 9 10 13 16 14 14 15
15 10 10 14 18 21 23 30 32 33 34 33 30 24 22 24 24 25 28 29 29 27 27 27 20 17 19 18 15 14 15 16 14 11 9 9 10 11 13 14 12 12 13
14 10 10 13 17 20 22 26 32 33 33 31 26 24 21 22 22 22 23 24 25 23 23 21 19 18 17 16 17 17 17 16 15 12 10 9 10 11 12 13 13 13 14
12 11 10 12 15 19 21 24 29 34 32 29 24 22 20 21 21 20 19 20 21 20 19 18 20 17 17 17 17 17 17 17 19 19 17 12 11 12 13 14 14 15 17
12 12 12 11 13 17 22 24 28 32 31 26 23 21 18 18 19 17 17 18 19 19 18 18 19 17 17 15 14 12 15 19 22 25 25 18 13 14 15 16 19 20 20
18 13 13 12 11 14 20 23 26 28 27 23 22 19 18 18 17 16 16 17 20 21 20 19 17 14 13 11 10 10 12 16 20 24 27 23 19 18 19 21 21 22 23
20 17 15 14 13 12 15 20 22 25 24 22 20 19 18 17 16 15 15 17 19 20 18 15 13 11 10 9 9 10 15 20 23 24 24 26 24 22 22 22 23 25 26
20 19 18 17 16 15 16 18 20 21 23 22 19 18 17 16 16 14 14 15 16 17 16 14 12 11 10 10 10 10 17 22 26 32 31 26 23 23 24 24 25 26 27
21 17 18 18 17 18 16 17 18 19 20 20 20 18 17 16 15 14 14 13 14 14 14 13 12 12 11 11 10 11 15 21 30 33 35 32 24 24 24 25 25 26 25
26 19 17 19 19 18 18 17 17 17 18 19 19 18 16 15 15 14 13 12 13 13 13 13 13 12 12 12 11 12 14 24 38 41 38 35 31 26 25 25 25 25 26
31 22 19 19 20 21 19 17 16 15 17 18 17 19 15 15 15 14 14 13 12 12 12 13 13 13 13 13 13 14 17 26 38 43 43 41 34 28 27 27 28 28 29
40 30 22 21 21 21 22 20 17 15 15 17 17 19 17 15 15 15 15 15 14 14 13 12 12 13 14 14 15 15 18 27 37 43 42 40 36 30 31 31 32 33 35
47 41 30 24 25 23 28 25 21 17 14 14 17 17 20 18 21 18 17 15 15 15 15 15 15 14 14 14 17 23 22 23 33 40 42 41 38 33 33 36 38 39 36
48 47 43 31 26 27 29 30 27 24 21 15 14 17 19 23 25 23 22 19 16 15 14 15 15 15 16 16 19 28 32 27 32 40 43 42 39 38 37 36 34 34 33
54 50 47 42 32 28 29 37 33 29 29 27 23 19 17 20 26 28 25 26 22 17 15 15 15 16 16 17 17 23 29 30 31 36 38 40 42 40 36 34 32 30 29
57 55 51 48 43 35 30 33 41 35 34 33 32 31 25 20 22 26 27 28 28 23 19 19 18 19 19 19 19 20 21 23 26 28 34 38 39 37 35 32 29 27 26
46 56 54 55 52 43 35 31 33 41 35 36 35 34 33 31 26 28 25 24 28 28 27 25 24 23 24 23 21 22 23 25 25 27 32 34 36 35 33 30 27 26 25
35 45 53 60 61 55 46 37 35 33 37 37 38 36 34 33 30 31 32 26 23 25 29 29 28 26 25 24 25 24 25 27 28 28 29 29 30 30 29 28 27 26 25
30 36 44 52 58 61 59 49 40 41 38 39 40 37 36 34 33 30 30 31 29 26 25 29 28 28 27 27 26 26 28 30 31 31 32 32 30 28 26 25 25 24 23
30 35 35 41 52 62 68 63 59 51 47 42 36 39 39 37 35 35 32 31 31 30 29 25 28 28 27 27 30 31 32 33 33 33 34 35 32 30 27 25 24 22 19
23 27 38 39 38 47 63 72 64 61 58 58 51 45 39 43 41 35 33 31 31 32 30 28 27 27 26 27 29 29 32 35 35 35 33 33 31 28 26 24 23 21 19
17 16 19 24 32 38 42 53 70 73 67 64 63 60 53 45 46 45 36 33 31 31 31 30 29 30 29 28 30 31 29 29 28 29 30 29 28 28 27 24 23 21 20
21 21 19 17 18 24 31 32 38 60 71 71 69 65 61 58 48 48 45 40 36 34 32 29 29 28 28 30 29 31 33 30 28 26 27 29 30 29 27 26 23 22 23
25 24 25 23 21 20 21 27 32 35 48 66 68 71 73 66 63 56 52 48 44 39 35 32 31 29 29 28 30 30 28 27 30 30 30 33 34 31 27 27 25 25 25
30 27 25 23 22 21 21 22 25 33 39 42 60 72 79 81 77 68 64 63 53 50 46 41 35 34 32 30 28 27 28 28 28 27 26 22 27 30 29 27 24 26 29
20 19 18 18 19 18 22 24 24 24 29 36 40 50 70 71 74 81 72 66 65 64 51 48 47 41 36 34 30 28 27 26 27 28 27 24 23 21 22 24 24 24 24

GFSSE_prec_cthk_261.txt.gz
RH
21 10 11 13 18 22 24 26 26 27 28 28 26 25 24 26 30 32 33 37 32 30 28 23 24 27 25 25 20 16 15 14 13 12 10 10 11 14 16 14 9 9 9
13 9 11 13 18 22 25 26 28 29 28 27 23 22 24 25 26 28 30 29 28 28 27 20 19 20 21 16 14 14 15 15 13 10 10 9 10 10 10 12 12 12 12
10 10 11 14 18 22 25 25 27 28 27 23 21 20 21 21 23 25 26 25 24 25 21 19 18 20 16 16 16 17 17 14 11 10 10 10 10 11 12 12 12 13 14
10 10 11 14 18 21 23 24 28 27 25 21 20 17 18 19 19 20 22 23 22 20 19 20 17 17 17 18 18 20 19 17 15 13 15 11 11 12 13 14 14 15 16
11 10 11 13 17 20 22 25 27 26 23 20 19 16 15 16 16 16 18 19 19 17 18 18 16 16 17 18 20 19 19 20 20 17 17 17 13 14 15 15 17 18 19
13 11 10 11 14 19 22 25 26 24 22 19 18 16 14 14 14 15 17 19 19 18 17 17 16 16 15 13 14 15 17 19 21 20 19 20 16 17 19 20 20 21 21
15 14 12 11 11 15 20 24 25 24 21 19 18 15 14 14 13 14 16 19 20 18 16 15 13 12 10 10 10 14 17 20 21 21 26 22 22 20 21 22 23 24 26
15 16 15 14 12 12 14 18 22 23 22 18 17 15 15 14 13 12 13 15 18 16 15 13 11 10 9 9 10 16 20 22 24 28 29 26 23 22 23 23 24 25 27
18 16 16 17 15 14 13 13 15 19 21 19 17 15 14 14 12 12 12 12 13 14 13 12 11 11 10 10 10 15 19 23 30 33 32 32 25 23 23 24 25 25 25
22 17 16 17 17 17 15 14 13 13 16 17 18 16 14 14 13 12 11 11 11 12 11 11 11 10 10 10 10 11 17 23 34 38 36 38 34 28 25 24 24 25 26
28 21 17 18 18 18 18 16 14 12 13 14 15 16 14 14 13 13 12 11 11 11 11 11 11 11 11 11 10 11 14 27 37 41 39 39 37 35 27 26 27 28 28
38 25 18 18 18 19 19 19 17 14 13 14 14 15 15 14 14 14 14 13 12 11 11 10 10 11 11 11 12 12 15 25 34 39 36 39 38 35 32 29 31 32 34
44 43 31 18 19 20 19 20 20 18 15 14 15 14 16 15 14 15 15 15 14 14 13 13 12 11 11 12 12 14 16 20 27 38 38 39 39 38 36 33 35 37 37
47 46 43 35 22 21 23 21 23 23 21 18 14 15 16 17 15 14 17 16 17 16 15 14 14 14 14 14 14 14 17 20 24 29 37 38 38 39 39 38 35 33 31
50 51 50 45 38 31 22 25 27 28 26 21 24 18 16 17 18 20 19 18 17 20 20 16 15 15 15 15 15 17 19 22 24 26 32 37 38 40 42 39 35 31 28
46 54 57 54 48 43 36 29 32 32 31 29 28 28 26 24 20 21 25 23 19 20 20 20 16 16 16 16 16 17 18 21 23 26 28 35 36 39 40 37 34 30 27
44 45 49 53 60 56 47 40 37 41 40 35 33 33 31 29 29 30 27 28 27 24 22 21 20 19 19 19 19 20 20 20 20 23 24 28 34 37 37 35 32 30 27
43 44 45 48 54 60 64 57 46 42 42 43 43 41 36 35 33 32 33 34 34 31 27 27 24 22 21 21 20 21 23 23 23 24 27 28 28 30 32 32 30 27 25
41 49 50 47 47 51 60 67 64 55 59 47 45 46 45 42 40 39 36 35 33 35 35 33 30 30 28 24 22 21 22 23 25 27 29 29 30 30 29 27 25 24 23
34 45 50 53 52 48 48 55 68 68 57 62 59 54 51 44 44 44 42 37 38 36 32 33 33 33 33 31 29 26 23 22 24 27 29 30 30 30 30 29 27 25 24
16 19 33 43 48 52 53 49 53 66 74 76 65 64 61 59 56 55 40 48 44 39 39 37 36 35 33 33 35 30 28 27 26 26 29 31 31 30 30 27 26 24 22
17 15 15 16 19 22 28 38 44 45 53 69 73 79 65 70 66 59 63 55 40 43 41 40 41 40 37 34 35 34 31 28 24 23 25 27 27 28 27 26 26 24 24
20 19 18 17 16 16 16 18 21 28 37 42 50 70 74 76 70 71 64 57 57 56 48 44 43 39 37 38 38 39 36 31 26 23 22 23 24 25 26 27 29 27 26
18 16 16 15 14 15 15 15 16 17 19 23 33 45 47 74 80 83 79 65 72 55 55 58 48 45 42 36 36 39 39 34 30 26 25 27 27 27 28 30 29 27 25
14 13 13 11 9 8 8 10 14 18 19 21 22 23 32 42 45 70 77 88 80 72 73 56 61 57 52 47 40 37 36 36 37 36 28 25 24 27 28 28 28 26 24
13 11 10 9 9 8 7 6 7 9 11 14 19 23 24 24 31 41 56 76 93 93 85 79 74 65 64 59 51 47 41 37 35 35 34 30 27 23 22 22 22 22 20